Aérodrome :
LOGIN :

S'inscrire | Disclaimer

   EN    FR    IT 

 










Légende :    VFR   VFR Marginal   IFR   IFR Intensif   IFR Très Intensif
Visi : 
Plafond : 
>= 8 km
>= 3000ft
5 à 8 km
1000 à 3000 ft
1500m à 5 km
500 à 1000 ft
800 à 1500m
200 à 500 ft
< 800m
< 200 ft
Symboles :   Orages  Brouillard  Fortes neiges  Fortes précipitations  Vent > 20 kt
SIGMETs :   Divers  Orages  Givrage  Turbulence  Onde Orograph.  Cendres Volcan.







- Altitude de l'aérodrome : 52 ft
- Code IATA : RNN


EKRN - Bornholm Ronne

DERNIER METAR :
  • 131820Z AUTO 18026KT 9999NDV SCT020/// BKN100/// 04/00 Q0996

METARs EXPIRÉS :
  • 131750Z 18027KT 9999 BKN018 04/00 Q0997
  • 131720Z 18027KT 9999 BKN018 04/00 Q0998
  • 131650Z 18027KT 9999 BKN018 04/00 Q0998
  • 131620Z 18027G37KT 9999 BKN017 03/M00 Q0999
  • 131550Z 18027KT 9999 SCT016 03/00 Q1000

TAF TAF EKRN
Valide du 13 à 18h jusqu'au 13 à 23h UTC


131727Z 1318/1323 18028KT 9999 BKN018
TEMPO 1318/1323 18025G40KT 4000 -RASN BKN010
Pas de NOTAMs connus pour ce terrain.



MET'MAP, la Météo Aéronautique d'un coup d'oeil ! - Copyright ORBIFLY Décembre 2007 - Disclaimer

ORBIFLY MET'MAP TEAM :

Programmation & Développement : Alexandra Zaïnal
Conception & Développement : Baudouin d'Aumeries
Co-Programmation & Développement : Marc-Olivier Méhu
Soutien technique & logistique : Manuel Goepfert

Contact : metmap@orbifly.com




SOURCES & CREDITS :

   NOAA